Location: Hohenfelde
(53.8441°N, 9.6220°E)
Time: 12:12:27
(UTC+00:00)

Cosmos 1263 - Pass Details

Date: 14 July 2020
Orbit: 384 x 1341 km, 82.9° (Epoch: 10 August)

Event Time Altitude Azimuth Distance (km) Brightness Sun altitude
Rises 02:11:52 0° 349° (N) 2,361 8.7 -6.6°
Reaches altitude 10° 02:13:56 10° 351° (N) 1,449 7.6 -6.5°
Maximum altitude 02:16:58 82° 77° (ENE) 397 4.2 -6.2°
Drops below altitude 10° 02:19:59 10° 168° (SSE) 1,438 6.6 -5.9°
Sets 02:22:01 0° 169° (S) 2,339 7.7 -5.7°
